Weather History for Springfield, MO

Change the Weather History Date:

Wednesday, November 2, 2011

  Actual Average Record
Temperature  
Mean Temperature 57 °F 52 °F  
Max Temperature 71 °F 63 °F 78 °F (1964)
Min Temperature 43 °F 41 °F 15 °F (1951)
Degree Days  
Heating Degree Days 8 13  
Month to date heating degree days 13 26  
Since 1 July heating degree days 357 334  
Cooling Degree Days 0 0  
Month to date cooling degree days 0 0  
Year to date cooling degree days 1818 1387  
Growing Degree Days 8 (Base 50)    
Moisture  
Dew Point 46 °F    
Average Humidity 56    
Maximum Humidity 66    
Minimum Humidity 45    
Precipitation  
Precipitation 0.41 in 0.14 in 3.04 in (1968)
Month to date precipitation 0.41 0.27  
Year to date precipitation 32.90 38.58  
Snow  
Snow 0.00 in - - ()
Month to date snowfall 0.0  
Since 1 July snowfall 0.0  
Since 1 September snowfall 0.0  
Snow Depth 0.00 in    
Sea Level Pressure  
Sea Level Pressure 29.94 in    
Wind  
Wind Speed 15 mph (South)    
Max Wind Speed 28 mph    
Max Gust Speed 37 mph    
Visibility 8 miles    
Events Rain    
T = Trace of Precipitation, MM = Missing Value Source: NWS Daily Summary

Daily Weather History Graph

Daily Weather History Graph

Search for Another Location

Airport:

Trip Planner

Search our weather history database for the weather conditions in past years. The results will help you decide how hot, cold, wet, or windy it might be!

Date:

Astronomy

Nov. 02, 2011 Rise Set
Actual Time 7:38 AM CDT 6:14 PM CDT
Civil Twilight 7:11 AM CDT 6:41 PM CDT
Nautical Twilight 6:40 AM CDT 7:12 PM CDT
Astronomical Twilight 6:10 AM CDT 7:43 PM CDT
Moon 1:58 PM CDT (11/2) 12:00 AM CDT (11/2)
Length of Visible Light 11h 30m
Length of Day
10h 36m
Waxing Crescent, 50% of the Moon is Illuminated
Nov 2
Waxing Crescent
Nov 10
Full
Nov 18
Last Quarter
Nov 25
New
Dec 2
First Quarter

Hourly Weather History & Observations

Time (CDT) Temp. Windchill Dew Point Humidity Pressure Visibility Wind Dir Wind Speed Gust Speed Precip Events Conditions
12:52 AM 54.0 °F - 37.0 °F 53% 30.01 in 10.0 mi SSE 11.5 mph - N/A   Clear
1:52 AM 51.1 °F - 37.9 °F 61% 30.03 in 10.0 mi SSE 8.1 mph - N/A   Clear
2:52 AM 48.9 °F - 37.9 °F 66% 30.03 in 10.0 mi SSE 8.1 mph - N/A   Clear
3:52 AM 51.1 °F - 37.9 °F 61% 30.02 in 10.0 mi SE 11.5 mph - N/A   Clear
4:52 AM 51.1 °F - 39.0 °F 63% 30.02 in 10.0 mi SSE 11.5 mph - N/A   Clear
5:52 AM 51.1 °F - 39.0 °F 63% 30.04 in 10.0 mi SSE 11.5 mph - N/A   Clear
6:52 AM 51.1 °F - 39.0 °F 63% 30.02 in 10.0 mi SSE 16.1 mph - N/A   Clear
7:52 AM 51.1 °F - 39.0 °F 63% 30.03 in 10.0 mi SSE 16.1 mph - N/A   Clear
8:52 AM 53.1 °F - 39.9 °F 61% 30.06 in 10.0 mi SSE 16.1 mph - N/A   Clear
9:52 AM 59.0 °F - 42.1 °F 53% 30.04 in 10.0 mi SSE 16.1 mph 24.2 mph N/A   Clear
10:52 AM 61.0 °F - 45.0 °F 56% 30.03 in 10.0 mi South 17.3 mph 23.0 mph N/A   Clear
11:52 AM 64.4 °F - 46.4 °F 52% 30.02 in 10.0 mi South 20.7 mph 25.3 mph N/A   Clear
12:52 PM 68.0 °F - 46.0 °F 45% 29.98 in 10.0 mi SSW 24.2 mph 29.9 mph N/A   Clear
1:52 PM 70.0 °F - 48.9 °F 47% 29.94 in 10.0 mi South 19.6 mph - N/A   Clear
2:52 PM 70.0 °F - 48.9 °F 47% 29.93 in 10.0 mi South 18.4 mph 23.0 mph N/A   Scattered Clouds
3:52 PM 69.1 °F - 50.0 °F 51% 29.91 in 10.0 mi South 19.6 mph - N/A   Clear
4:52 PM 68.0 °F - 51.1 °F 55% 29.92 in 10.0 mi South 12.7 mph - N/A   Overcast
5:52 PM 66.9 °F - 50.0 °F 54% 29.90 in 10.0 mi South 16.1 mph - N/A   Overcast
6:52 PM 64.9 °F - 48.9 °F 56% 29.88 in 10.0 mi SSE 15.0 mph - N/A   Clear
7:52 PM 64.0 °F - 50.0 °F 60% 29.83 in 10.0 mi SSE 17.3 mph 25.3 mph N/A   Overcast
8:52 PM 62.1 °F - 52.0 °F 70% 29.80 in 10.0 mi South 18.4 mph 26.5 mph 0.00 in Rain Light Rain
9:52 PM 60.1 °F - 54.0 °F 80% 29.80 in 10.0 mi South 17.3 mph - 0.01 in   Overcast
10:06 PM 57.2 °F - 55.4 °F 94% 29.87 in 2.5 mi West 23.0 mph 36.8 mph 0.02 in Rain Heavy Rain
10:09 PM 53.6 °F - 53.6 °F 100% 29.88 in 1.8 mi WNW 15.0 mph 36.8 mph 0.06 in Rain Heavy Rain
10:14 PM 50.0 °F - 48.2 °F 94% 29.88 in 2.0 mi NW 17.3 mph 36.8 mph 0.16 in Rain Heavy Rain
10:19 PM 48.2 °F - 48.2 °F 100% 29.88 in 4.0 mi NW 16.1 mph 26.5 mph 0.17 in Rain Heavy Rain
10:29 PM 46.4 °F 41.1 °F 46.4 °F 100% 29.90 in 2.5 mi NW 11.5 mph 21.9 mph 0.22 in Rain Heavy Rain
10:39 PM 46.4 °F 40.4 °F 44.6 °F 93% 29.88 in 3.0 mi NNW 13.8 mph - 0.32 in Rain Heavy Rain
10:52 PM 46.0 °F 41.0 °F 46.0 °F 100% 29.85 in 6.0 mi NNE 10.4 mph - 0.36 in Rain Rain
11:10 PM 46.4 °F 42.9 °F 46.4 °F 100% 29.87 in 10.0 mi North 6.9 mph - 0.03 in Rain Light Rain
11:52 PM 45.0 °F 40.6 °F 44.1 °F 97% 29.89 in 10.0 mi NW 8.1 mph - 0.03 in   Overcast